Skip Page Navigation
NASA JPL Caltech
NASA Logo - Jet Propulsion Laboratory + View the NASA Portal
+ Near-Earth Object (NEO) Program
Search JPL
JPL Home Earth Solar System Stars & Galaxies Technology
JPL Solar System Dynamics
BODIES ORBITS EPHEMERIDES TOOLS PHYSICAL DATA DISCOVERY FAQ SITE MAP
JPL Small-Body Database Browser
Search: [ help ]  
3892 Dezso (1941 HD)
Classification: Main-belt Asteroid          SPK-ID: 2003892
Ephemeris | Orbit Diagram | Orbital Elements | Physical Parameters | Discovery Circumstances | Close-Approach Data ]

[ show orbit diagram ]
Orbital Elements at Epoch 2457000.5 (2014-Dec-09.0) TDB
Reference: JPL 4 (heliocentric ecliptic J2000)
 Element Value Uncertainty (1-sigma)   Units 
e .1410342343996654 5.154e-08  
a 2.604689898896301 1.9652e-08 AU
q 2.237339453156919 1.4076e-07 AU
i 13.76709012237771 8.3921e-06 deg
node 159.5618890742471 2.116e-05 deg
peri 71.8865357659178 3.7857e-05 deg
M 161.600002219035 3.4638e-05 deg
tp 2456311.258645492387
(2013-Jan-18.75864549)
0.00014387 JED
period 1535.438639947702
4.20
1.7377e-05
4.758e-08
d
yr
n .2344606880625733 2.6535e-09 deg/d
Q 2.972040344635682 2.2424e-08 AU
  Orbit Determination Parameters
   # obs. used (total)      1157  
   data-arc span      26832 days (73.46 yr)  
   first obs. used      1941-04-19  
   last obs. used      2014-10-05  
   planetary ephem.      DE431  
   SB-pert. ephem.      SB431-BIG16  
   condition code      0  
   fit RMS      .53055  
   data source      ORB  
   producer      Otto Matic  
   solution date      2014-Oct-09 13:59:15  

Additional Information
 Earth MOID = 1.27452 AU 
 T_jup = 3.358 
[ show covariance matrix ]

Ephemeris | Orbit Diagram | Orbital Elements | Physical Parameters | Discovery Circumstances | Close-Approach Data ]

Physical Parameter Table
Parameter Symbol Value Units Sigma Reference Notes
absolute magnitude H 12.5 mag n/a MPO259365  

3892 Dezso (1941 HD)          Discovered 1941-Apr-19 by Oterma, L. at Turku
Reference: DISCOVERY.DBLast Updated: 2003-08-29

[ show close-approach data ]
Alternate Designations
 1941 HD = 1970 EA2 = 1980 TO1 = 1983 HD1 = 1987 DD1 
Ephemeris | Orbit Diagram | Orbital Elements | Physical Parameters | Discovery Circumstances | Close-Approach Data ]
ABOUT SSD CREDITS/AWARDS PRIVACY/COPYRIGHT GLOSSARY LINKS
FirstGov 2014-Oct-25 01:30 UT
(server date/time)  
NASA Home Page
Site Manager:   Donald K. Yeomans
Webmaster  Alan B. Chamberlin